Total_Precipitation_Accumulation
2.09 2.11 2.09 2.12 1.94 2.13 2.48 2.59 2.47 2.67 2.75 2.55 2.33 2.07 1.93 1.77 1.65 1.67 1.76 1.67 1.54 1.60 1.86 1.95 1.80 1.67 1.54 1.36 1.20 1.12 1.09 1.00 0.96 0.83 0.70 0.66 0.74 0.72 0.62 0.56 0.50 0.43 0.40
2.51 2.58 2.42 2.38 2.22 2.23 2.45 2.59 2.61 3.13 3.07 2.93 2.46 2.17 2.08 2.01 1.84 1.83 1.89 1.97 1.68 1.52 1.64 1.94 2.09 2.02 1.88 1.66 1.47 1.32 1.20 1.12 1.01 0.78 0.65 0.61 0.69 0.77 0.73 0.67 0.57 0.46 0.36
2.63 2.72 2.69 2.55 2.45 2.40 2.58 2.64 2.85 3.12 2.87 2.75 2.46 2.31 2.18 2.05 1.85 1.84 2.02 2.21 1.98 1.70 1.56 1.70 2.01 2.15 2.16 2.12 1.99 1.69 1.39 1.19 1.07 0.84 0.67 0.62 0.67 0.76 0.75 0.74 0.70 0.53 0.38
2.63 2.75 2.58 2.45 2.65 2.72 2.83 3.01 3.11 3.13 3.00 2.91 2.68 2.33 2.16 2.10 1.69 1.66 1.71 1.81 1.96 1.71 1.81 1.94 2.10 2.17 2.31 2.42 2.42 2.34 1.99 1.54 1.27 1.07 0.87 0.75 0.76 0.79 0.74 0.72 0.70 0.56 0.42
2.46 2.66 2.55 2.63 2.78 2.88 2.93 2.69 3.09 3.09 3.09 3.01 2.48 2.22 1.96 1.84 1.70 1.46 1.44 1.37 1.51 1.55 1.63 1.75 1.94 1.95 2.24 2.62 2.78 2.85 2.71 2.24 1.75 1.46 1.33 1.14 1.03 0.92 0.81 0.75 0.71 0.62 0.49
2.59 2.78 2.62 2.71 2.82 2.97 3.00 2.98 3.17 3.14 2.97 2.94 2.31 2.06 1.83 1.48 1.48 1.44 1.26 1.26 1.28 1.19 1.29 1.52 1.87 1.61 1.95 2.33 2.55 2.88 3.13 2.96 2.48 2.05 1.87 1.72 1.55 1.29 1.02 0.91 0.86 0.80 0.67
2.76 3.00 2.82 2.98 2.96 2.83 2.85 2.99 3.17 2.99 2.76 2.85 2.75 2.17 1.62 1.29 1.28 1.25 1.30 1.38 1.28 1.27 1.42 1.73 1.86 1.73 1.60 1.67 1.75 2.13 2.77 3.22 3.15 2.69 2.32 2.07 1.99 1.85 1.40 1.23 1.14 1.04 0.93
2.72 2.64 2.78 2.67 2.72 2.86 2.83 2.87 3.07 2.89 2.50 2.63 2.75 2.59 1.93 1.63 1.28 1.00 1.21 1.28 1.29 1.47 1.52 1.59 1.84 2.03 1.89 1.97 1.57 1.54 2.17 2.90 3.32 3.28 2.84 2.48 2.31 2.17 1.82 1.66 1.45 1.22 1.09
2.34 2.39 2.43 2.51 2.76 2.78 2.78 2.86 2.85 2.70 2.39 2.36 2.50 2.65 2.14 1.74 1.40 1.01 0.97 1.16 1.43 1.58 1.54 1.67 1.75 1.93 2.00 2.20 2.16 1.86 1.77 1.99 2.62 3.29 3.30 2.95 2.53 2.21 2.19 2.22 2.00 1.58 1.29
2.28 2.25 2.26 2.31 2.38 2.37 2.46 2.26 2.35 2.50 2.55 2.35 2.42 2.35 2.19 2.01 1.87 1.41 1.10 1.08 1.30 1.43 1.55 1.53 1.54 1.66 1.93 2.32 2.45 2.09 1.75 1.58 1.81 2.63 3.22 3.28 2.90 2.50 2.41 2.50 2.65 2.32 1.75
2.25 2.19 2.16 2.14 2.05 2.01 2.13 2.11 2.23 2.27 2.27 2.24 2.29 2.35 2.31 2.20 2.05 1.92 1.60 1.40 1.32 1.16 1.27 1.37 1.45 1.55 1.78 2.08 2.27 2.10 2.01 1.77 1.71 1.91 2.35 2.77 2.87 2.75 2.59 2.69 3.04 3.14 2.75
2.12 2.04 2.00 2.01 1.92 1.91 1.97 2.04 2.11 2.06 2.10 2.17 2.19 2.21 2.26 2.17 2.16 2.21 1.87 1.68 1.54 1.22 1.20 1.18 1.25 1.35 1.60 1.80 1.71 1.80 1.78 1.63 1.53 1.57 1.74 2.08 2.33 2.46 2.54 2.76 3.18 3.56 3.59
1.72 1.73 1.70 1.77 1.76 1.81 1.84 1.90 1.95 1.96 2.05 2.13 2.10 2.11 2.10 2.03 2.09 2.17 2.11 1.81 1.64 1.37 1.39 1.31 1.21 1.27 1.28 1.59 1.61 1.46 1.27 1.24 1.19 1.22 1.24 1.39 1.63 1.81 2.01 2.28 2.66 3.05 3.35
1.46 1.58 1.72 1.76 1.77 1.78 1.78 1.91 1.80 1.81 1.96 2.01 2.00 2.26 2.12 1.92 2.01 2.09 2.21 2.26 1.99 1.64 1.61 1.47 1.31 1.26 1.29 1.39 1.38 1.29 1.17 1.09 1.02 0.98 0.96 0.98 1.04 1.17 1.34 1.56 1.84 2.08 2.30
1.51 1.59 1.68 1.76 1.79 1.87 1.92 1.94 1.82 1.93 2.11 2.02 2.10 2.27 2.17 2.04 2.05 2.05 2.22 2.42 2.37 2.03 1.71 1.55 1.44 1.26 1.26 1.26 1.31 1.28 1.22 1.12 0.99 0.92 0.88 0.84 0.83 0.86 0.95 1.09 1.26 1.43 1.53
1.53 1.47 1.49 1.55 1.56 1.62 1.74 1.81 1.76 1.88 2.09 2.03 2.01 2.09 2.07 2.05 2.22 2.18 2.24 2.36 2.47 2.33 1.84 1.62 1.54 1.29 1.40 1.16 1.22 1.21 1.21 1.15 0.97 0.88 0.84 0.82 0.81 0.82 0.83 0.87 0.96 1.08 1.21
1.48 1.41 1.38 1.38 1.38 1.35 1.41 1.55 1.57 1.76 1.78 1.75 1.68 1.73 1.72 1.91 2.08 2.03 2.13 2.20 2.32 2.41 2.00 1.77 1.85 1.72 1.73 1.54 1.39 1.29 1.12 1.12 1.02 0.96 0.88 0.81 0.79 0.79 0.82 0.82 0.80 0.85 0.93
1.29 1.34 1.40 1.31 1.22 1.28 1.37 1.39 1.46 1.61 1.67 1.66 1.65 1.69 1.60 1.73 1.83 1.85 2.01 2.09 2.24 2.47 2.26 2.06 2.10 2.11 2.03 1.84 1.71 1.53 1.19 1.02 1.03 1.07 0.93 0.82 0.77 0.77 0.82 0.83 0.79 0.77 0.79
1.21 1.28 1.32 1.28 1.24 1.32 1.46 1.54 1.62 1.65 1.54 1.51 1.51 1.49 1.46 1.59 1.63 1.74 1.89 1.89 1.98 2.27 2.31 2.10 2.06 2.33 2.24 2.04 2.08 1.78 1.54 1.47 1.09 1.07 0.97 0.82 0.77 0.75 0.77 0.85 0.87 0.83 0.79
1.27 1.32 1.35 1.43 1.46 1.45 1.42 1.45 1.49 1.57 1.56 1.41 1.28 1.20 1.24 1.39 1.44 1.55 1.60 1.69 1.80 1.97 2.16 2.15 2.07 2.24 2.31 2.19 2.35 2.11 1.87 1.72 1.44 1.18 1.17 0.96 0.88 0.85 0.83 0.83 0.86 0.88 0.89
1.21 1.34 1.49 1.58 1.59 1.50 1.34 1.35 1.40 1.34 1.38 1.32 1.20 1.07 0.99 1.01 1.06 1.20 1.20 1.38 1.62 1.78 1.87 2.00 2.05 2.15 2.35 2.41 2.26 2.21 2.07 1.92 1.81 1.69 1.67 1.28 1.00 0.89 0.88 0.88 0.90 0.95 0.99
1.21 1.34 1.38 1.42 1.40 1.23 1.23 1.15 1.14 1.17 1.20 1.21 1.22 1.20 1.05 0.95 0.92 0.95 0.99 1.05 1.18 1.33 1.53 1.77 1.85 1.95 2.17 2.40 2.40 2.44 2.37 2.19 2.01 1.85 2.00 1.97 1.63 1.36 1.17 0.96 0.95 0.98 1.06
1.27 1.27 1.25 1.24 1.25 1.35 1.24 1.07 1.02 1.04 1.14 1.18 1.22 1.21 1.01 0.89 0.95 0.92 0.97 0.98 1.02 1.04 1.11 1.33 1.47 1.51 1.72 2.04 2.39 2.47 2.55 2.42 2.20 2.15 2.30 2.38 2.44 2.21 1.65 1.30 1.23 1.08 1.11
1.33 1.28 1.15 1.14 1.17 1.21 1.21 1.10 1.08 0.99 1.03 1.11 1.17 1.19 1.19 1.14 1.06 1.07 1.09 1.05 0.96 0.95 0.96 0.93 0.99 1.18 1.35 1.61 2.00 2.20 2.51 2.69 2.54 2.46 2.54 2.61 2.63 2.85 2.36 1.82 1.63 1.39 1.31
1.34 1.37 1.26 1.22 1.22 1.24 1.22 1.09 1.05 0.97 1.05 1.12 1.19 1.19 1.17 1.12 1.13 1.09 1.10 1.11 1.01 0.94 0.92 0.91 0.88 0.99 1.18 1.32 1.61 1.96 2.24 2.43 2.52 2.60 2.67 2.73 2.65 2.80 3.09 2.64 1.95 1.59 1.37
1.49 1.52 1.47 1.41 1.45 1.48 1.50 1.32 1.20 1.06 1.09 1.15 1.27 1.26 1.14 1.02 1.08 1.03 0.94 1.01 1.00 1.00 1.05 1.01 1.00 1.02 1.08 1.24 1.49 1.76 2.01 2.26 2.31 2.39 2.26 2.25 2.26 2.40 2.83 3.03 2.67 2.06 1.60